| time (UTC) | temp C | wind direction | speed KPH | gust KPH | rain 1hr cm | rain 24hr cm | rain mn cm | humidity % | barometer mb |
| 20260506185306 | 7 | 208 | 1.6 | 8.0 | 0.00 | 1.07 | 1.07 | 92 | 1009.7 |
| 20260506185058 | 7 | 229 | 1.6 | 8.0 | 0.00 | 1.07 | 1.07 | 92 | 1009.8 |
| 20260506184850 | 7 | 205 | 1.6 | 8.0 | 0.00 | 1.07 | 1.07 | 92 | 1009.7 |
| 20260506184648 | 7 | 194 | 1.6 | 8.0 | 0.00 | 1.07 | 1.07 | 92 | 1009.7 |
| 20260506184442 | 7 | 218 | 1.6 | 8.0 | 0.00 | 1.07 | 1.07 | 92 | 1009.7 |
| 20260506184232 | 7 | 228 | 1.6 | 8.0 | 0.00 | 1.07 | 1.07 | 91 | 1009.7 |
| 20260506184030 | 7 | 217 | 1.6 | 8.0 | 0.00 | 1.07 | 1.07 | 91 | 1009.6 |
| 20260506183826 | 7 | 83 | 1.6 | 8.0 | 0.00 | 1.07 | 1.07 | 91 | 1009.7 |
| 20260506183616 | 7 | 200 | 1.6 | 8.0 | 0.00 | 1.07 | 1.07 | 91 | 1009.8 |
| 20260506183417 | 7 | 205 | 1.6 | 8.0 | 0.00 | 1.07 | 1.07 | 91 | 1009.7 |
| 20260506183208 | 7 | 185 | 1.6 | 6.4 | 0.00 | 1.07 | 1.07 | 91 | 1009.7 |
| 20260506182959 | 7 | 236 | 1.6 | 4.8 | 0.00 | 1.07 | 1.07 | 91 | 1009.8 |
| 20260506182754 | 7 | 229 | 0.0 | 9.7 | 0.00 | 1.07 | 1.07 | 91 | 1009.8 |
| 20260506182548 | 7 | 228 | 1.6 | 9.7 | 0.00 | 1.07 | 1.07 | 91 | 1009.8 |
| 20260506182344 | 7 | 224 | 1.6 | 9.7 | 0.00 | 1.07 | 1.07 | 90 | 1009.7 |
| 20260506182136 | 7 | 223 | 1.6 | 9.7 | 0.00 | 1.07 | 1.07 | 90 | 1009.7 |
| 20260506181930 | 7 | 228 | 1.6 | 9.7 | 0.00 | 1.07 | 1.07 | 90 | 1009.7 |
| 20260506181728 | 8 | 229 | 3.2 | 9.7 | 0.00 | 1.07 | 1.07 | 90 | 1009.7 |
| 20260506181158 | 8 | 221 | 3.2 | 9.7 | 0.00 | 1.07 | 1.07 | 90 | 1009.7 |
| 20260506180952 | 8 | 242 | 3.2 | 9.7 | 0.00 | 1.07 | 1.07 | 89 | 1009.7 |
| 20260506180745 | 8 | 231 | 3.2 | 8.0 | 0.00 | 1.09 | 1.07 | 89 | 1009.7 |
| 20260506180539 | 8 | 232 | 1.6 | 8.0 | 0.00 | 1.09 | 1.07 | 89 | 1009.6 |
| 20260506180333 | 8 | 228 | 1.6 | 8.0 | 0.00 | 1.09 | 1.07 | 89 | 1009.7 |
| 20260506180123 | 8 | 225 | 1.6 | 9.7 | 0.00 | 1.09 | 1.07 | 89 | 1009.7 |
| 20260506175556 | 8 | 231 | 3.2 | 9.7 | 0.00 | 1.09 | 1.07 | 89 | 1009.6 |
| 20260506175354 | 8 | 212 | 3.2 | 9.7 | 0.00 | 1.09 | 1.07 | 89 | 1009.5 |
| 20260506175152 | 8 | 221 | 3.2 | 9.7 | 0.00 | 1.09 | 1.07 | 88 | 1009.6 |
| 20260506174947 | 8 | 243 | 3.2 | 9.7 | 0.00 | 1.09 | 1.07 | 89 | 1009.6 |
| 20260506174741 | 8 | 229 | 3.2 | 9.7 | 0.00 | 1.09 | 1.07 | 88 | 1009.6 |
| 20260506174531 | 8 | 231 | 1.6 | 9.7 | 0.00 | 1.09 | 1.07 | 88 | 1009.5 |
| 20260506174325 | 8 | 240 | 1.6 | 8.0 | 0.00 | 1.09 | 1.07 | 89 | 1009.5 |
| 20260506174125 | 8 | 238 | 1.6 | 6.4 | 0.00 | 1.09 | 1.07 | 89 | 1009.5 |
| 20260506173915 | 8 | 236 | 0.0 | 6.4 | 0.00 | 1.09 | 1.07 | 90 | 1009.5 |
| 20260506173351 | 8 | 228 | 0.0 | 6.4 | 0.00 | 1.09 | 1.07 | 89 | 1009.5 |
| 20260506173148 | 8 | 234 | 1.6 | 6.4 | 0.00 | 1.09 | 1.07 | 89 | 1009.4 |
| 20260506172942 | 8 | 230 | 1.6 | 6.4 | 0.00 | 1.09 | 1.07 | 89 | 1009.4 |
| 20260506172737 | 8 | 216 | 1.6 | 6.4 | 0.00 | 1.09 | 1.07 | 88 | 1009.3 |
| 20260506172528 | 8 | 232 | 1.6 | 12.9 | 0.00 | 1.09 | 1.07 | 88 | 1009.4 |
| 20260506172322 | 8 | 226 | 1.6 | 12.9 | 0.00 | 1.09 | 1.07 | 88 | 1009.3 |
| 20260506172120 | 8 | 236 | 1.6 | 12.9 | 0.00 | 1.09 | 1.07 | 88 | 1009.3 |
| 20260506171918 | 8 | 250 | 1.6 | 12.9 | 0.00 | 1.09 | 1.07 | 88 | 1009.3 |
| 20260506171712 | 8 | 238 | 3.2 | 12.9 | 0.00 | 1.09 | 1.07 | 88 | 1009.2 |
| 20260506171507 | 8 | 239 | 4.8 | 17.7 | 0.00 | 1.09 | 1.07 | 87 | 1009.2 |
| 20260506170942 | 8 | 262 | 4.8 | 17.7 | 0.00 | 1.09 | 1.07 | 87 | 1009.2 |
| 20260506170743 | 8 | 244 | 6.4 | 17.7 | 0.00 | 1.09 | 1.07 | 87 | 1009.0 |
| 20260506170534 | 8 | 248 | 8.0 | 17.7 | 0.00 | 1.09 | 1.07 | 87 | 1009.1 |
| 20260506170335 | 8 | 255 | 9.7 | 17.7 | 0.00 | 1.12 | 1.07 | 86 | 1009.0 |
| 20260506170128 | 8 | 233 | 9.7 | 17.7 | 0.00 | 1.12 | 1.07 | 86 | 1009.1 |
| 20260506165922 | 8 | 238 | 9.7 | 17.7 | 0.00 | 1.12 | 1.07 | 85 | 1009.1 |
| 20260506165711 | 8 | 229 | 8.0 | 17.7 | 0.00 | 1.12 | 1.07 | 85 | 1009.1 |
| 20260506165503 | 8 | 209 | 6.4 | 16.1 | 0.00 | 1.12 | 1.07 | 85 | 1009.2 |
| 20260506165253 | 8 | 236 | 6.4 | 16.1 | 0.00 | 1.12 | 1.07 | 86 | 1009.1 |
| 20260506165049 | 8 | 248 | 6.4 | 16.1 | 0.00 | 1.12 | 1.07 | 88 | 1009.2 |
| 20260506164847 | 8 | 256 | 6.4 | 16.1 | 0.00 | 1.12 | 1.07 | 88 | 1009.2 |
| 20260506164644 | 8 | 242 | 6.4 | 16.1 | 0.00 | 1.12 | 1.07 | 87 | 1009.2 |
| 20260506164435 | 8 | 249 | 4.8 | 14.5 | 0.00 | 1.12 | 1.07 | 87 | 1009.2 |
| 20260506164230 | 8 | 245 | 4.8 | 14.5 | 0.00 | 1.12 | 1.07 | 87 | 1009.1 |
| 20260506164027 | 8 | 212 | 4.8 | 11.3 | 0.00 | 1.12 | 1.07 | 87 | 1009.2 |
| 20260506163822 | 8 | 241 | 3.2 | 17.7 | 0.00 | 1.12 | 1.07 | 87 | 1009.2 |
| 20260506163616 | 8 | 264 | 3.2 | 17.7 | 0.00 | 1.12 | 1.07 | 88 | 1009.2 |
| 20260506163052 | 8 | 238 | 6.4 | 17.7 | 0.00 | 1.12 | 1.07 | 89 | 1009.2 |
| 20260506162850 | 8 | 235 | 6.4 | 17.7 | 0.00 | 1.12 | 1.07 | 88 | 1009.3 |
| 20260506162643 | 8 | 241 | 8.0 | 17.7 | 0.00 | 1.12 | 1.07 | 88 | 1009.2 |
| 20260506162442 | 8 | 234 | 8.0 | 17.7 | 0.00 | 1.12 | 1.07 | 88 | 1009.2 |
| 20260506162235 | 8 | 258 | 8.0 | 17.7 | 0.00 | 1.12 | 1.07 | 87 | 1009.2 |
| 20260506162030 | 8 | 235 | 6.4 | 17.7 | 0.00 | 1.12 | 1.07 | 87 | 1009.2 |
| 20260506161828 | 8 | 240 | 4.8 | 16.1 | 0.00 | 1.12 | 1.07 | 88 | 1009.3 |
| 20260506161629 | 8 | 268 | 4.8 | 16.1 | 0.00 | 1.12 | 1.07 | 87 | 1009.2 |
| 20260506161423 | 8 | 254 | 4.8 | 11.3 | 0.00 | 1.12 | 1.07 | 88 | 1009.3 |
| 20260506160855 | 8 | 203 | 4.8 | 16.1 | 0.00 | 1.12 | 1.07 | 88 | 1009.4 |
| 20260506160327 | 8 | 226 | 6.4 | 16.1 | 0.00 | 1.12 | 1.07 | 89 | 1009.3 |
| 20260506160125 | 8 | 228 | 6.4 | 17.7 | 0.00 | 1.12 | 1.07 | 89 | 1009.3 |
| 20260506155920 | 8 | 255 | 6.4 | 17.7 | 0.00 | 1.12 | 1.07 | 89 | 1009.3 |
| 20260506155714 | 8 | 239 | 8.0 | 17.7 | 0.00 | 1.12 | 1.07 | 88 | 1009.4 |
| 20260506155515 | 8 | 236 | 8.0 | 17.7 | 0.00 | 1.12 | 1.07 | 88 | 1009.3 |
| 20260506155309 | 8 | 222 | 8.0 | 17.7 | 0.00 | 1.12 | 1.07 | 88 | 1009.3 |
| 20260506155108 | 8 | 203 | 8.0 | 17.7 | 0.00 | 1.12 | 1.07 | 88 | 1009.3 |
| 20260506154902 | 8 | 229 | 8.0 | 17.7 | 0.00 | 1.12 | 1.07 | 88 | 1009.3 |
| 20260506154701 | 8 | 226 | 8.0 | 17.7 | 0.00 | 1.12 | 1.07 | 88 | 1009.3 |
| 20260506154458 | 8 | 247 | 8.0 | 17.7 | 0.00 | 1.12 | 1.07 | 89 | 1009.2 |
| 20260506154248 | 8 | 254 | 8.0 | 17.7 | 0.00 | 1.12 | 1.07 | 88 | 1009.2 |
| 20260506154046 | 8 | 237 | 6.4 | 16.1 | 0.00 | 1.12 | 1.07 | 90 | 1009.2 |
| 20260506153845 | 8 | 251 | 8.0 | 16.1 | 0.00 | 1.12 | 1.07 | 90 | 1009.2 |
| 20260506153638 | 8 | 245 | 8.0 | 16.1 | 0.00 | 1.12 | 1.07 | 90 | 1009.3 |
| 20260506153430 | 8 | 249 | 8.0 | 16.1 | 0.00 | 1.12 | 1.07 | 90 | 1009.3 |
| 20260506152908 | 8 | 273 | 6.4 | 16.1 | 0.00 | 1.12 | 1.07 | 90 | 1009.3 |
| 20260506152702 | 8 | 229 | 4.8 | 11.3 | 0.00 | 1.12 | 1.07 | 89 | 1009.3 |
| 20260506152453 | 8 | 234 | 3.2 | 9.7 | 0.00 | 1.12 | 1.07 | 89 | 1009.3 |
| 20260506151928 | 8 | 238 | 4.8 | 16.1 | 0.00 | 1.12 | 1.07 | 90 | 1009.3 |
| 20260506151718 | 8 | 236 | 4.8 | 16.1 | 0.00 | 1.12 | 1.07 | 89 | 1009.3 |
| 20260506151517 | 8 | 276 | 4.8 | 16.1 | 0.00 | 1.12 | 1.07 | 88 | 1009.2 |
| 20260506151311 | 9 | 233 | 6.4 | 22.5 | 0.00 | 1.12 | 1.07 | 88 | 1009.2 |
| 20260506151100 | 9 | 252 | 6.4 | 22.5 | 0.00 | 1.12 | 1.07 | 87 | 1009.1 |
| 20260506150545 | 10 | 276 | 6.4 | 22.5 | 0.00 | 1.12 | 1.07 | 89 | 1009.2 |
| 20260506150340 | 10 | 255 | 6.4 | 22.5 | 0.00 | 1.12 | 1.07 | 88 | 1009.2 |
| 20260506150133 | 10 | 252 | 8.0 | 22.5 | 0.00 | 1.12 | 1.07 | 88 | 1009.2 |
| 20260506145932 | 10 | 247 | 8.0 | 22.5 | 0.00 | 1.12 | 1.07 | 89 | 1009.2 |
| 20260506145723 | 9 | 257 | 8.0 | 22.5 | 0.00 | 1.12 | 1.07 | 89 | 1009.3 |
| 20260506145515 | 9 | 229 | 8.0 | 22.5 | 0.00 | 1.12 | 1.07 | 85 | 1009.2 |
| 20260506144944 | 9 | 250 | 6.4 | 17.7 | 0.00 | 1.12 | 1.07 | 89 | 1009.1 |
| 20260506144733 | 9 | 243 | 8.0 | 19.3 | 0.00 | 1.12 | 1.07 | 88 | 1009.1 |
| 20260506144523 | 9 | 233 | 9.7 | 19.3 | 0.00 | 1.12 | 1.07 | 88 | 1009.1 |
| 20260506144322 | 9 | 248 | 9.7 | 19.3 | 0.00 | 1.12 | 1.07 | 88 | 1009.2 |
| 20260506144116 | 9 | 220 | 9.7 | 19.3 | 0.00 | 1.12 | 1.07 | 88 | 1009.2 |
| 20260506143917 | 9 | 275 | 11.3 | 19.3 | 0.00 | 1.12 | 1.07 | 89 | 1009.2 |
| 20260506143351 | 9 | 230 | 11.3 | 24.1 | 0.00 | 1.12 | 1.07 | 92 | 1009.1 |
| 20260506143152 | 8 | 249 | 12.9 | 24.1 | 0.00 | 1.12 | 1.07 | 91 | 1009.1 |
| 20260506142949 | 8 | 222 | 11.3 | 24.1 | 0.00 | 1.12 | 1.07 | 91 | 1009.1 |
| 20260506142744 | 8 | 236 | 12.9 | 24.1 | 0.00 | 1.12 | 1.07 | 92 | 1009.1 |
| 20260506142545 | 8 | 233 | 12.9 | 24.1 | 0.00 | 1.12 | 1.07 | 91 | 1009.1 |
| 20260506142346 | 8 | 254 | 12.9 | 24.1 | 0.00 | 1.12 | 1.07 | 89 | 1009.1 |
| 20260506142141 | 9 | 232 | 12.9 | 24.1 | 0.00 | 1.12 | 1.07 | 92 | 1009.1 |
| 20260506141608 | 8 | 243 | 12.9 | 24.1 | 0.00 | 1.12 | 1.07 | 92 | 1009.1 |
| 20260506141400 | 8 | 224 | 11.3 | 24.1 | 0.00 | 1.12 | 1.07 | 93 | 1009.0 |
| 20260506141152 | 8 | 284 | 11.3 | 24.1 | 0.00 | 1.12 | 1.07 | 92 | 1009.1 |
| 20260506140951 | 8 | 229 | 11.3 | 24.1 | 0.00 | 1.12 | 1.07 | 94 | 1009.2 |
| 20260506140427 | 8 | 238 | 12.9 | 24.1 | 0.00 | 1.12 | 1.07 | 93 | 1009.1 |
| 20260506140222 | 8 | 240 | 12.9 | 24.1 | 0.00 | 1.12 | 1.07 | 93 | 1009.2 |
| 20260506135658 | 7 | 268 | 11.3 | 29.0 | 0.00 | 1.12 | 1.07 | 93 | 1009.2 |
| 20260506135454 | 7 | 247 | 11.3 | 29.0 | 0.00 | 1.12 | 1.07 | 93 | 1009.2 |
| 20260506135251 | 7 | 205 | 11.3 | 29.0 | 0.00 | 1.12 | 1.07 | 94 | 1009.2 |
| 20260506135046 | 7 | 244 | 11.3 | 29.0 | 0.00 | 1.12 | 1.07 | 94 | 1009.2 |
| 20260506134844 | 7 | 241 | 11.3 | 29.0 | 0.00 | 1.12 | 1.07 | 95 | 1009.2 |
| 20260506134638 | 7 | 238 | 11.3 | 29.0 | 0.00 | 1.12 | 1.07 | 95 | 1009.2 |
| 20260506134435 | 7 | 237 | 11.3 | 29.0 | 0.00 | 1.12 | 1.07 | 95 | 1009.1 |
| 20260506134228 | 7 | 240 | 11.3 | 29.0 | 0.00 | 1.12 | 1.07 | 96 | 1009.2 |
| 20260506134018 | 7 | 249 | 12.9 | 29.0 | 0.00 | 1.12 | 1.07 | 95 | 1009.1 |
| 20260506133818 | 7 | 223 | 12.9 | 29.0 | 0.00 | 1.12 | 1.07 | 95 | 1009.1 |
| 20260506133617 | 7 | 237 | 12.9 | 24.1 | 0.00 | 1.12 | 1.07 | 96 | 1009.2 |
| 20260506133407 | 7 | 237 | 12.9 | 24.1 | 0.00 | 1.12 | 1.07 | 96 | 1009.1 |
| 20260506133203 | 7 | 264 | 12.9 | 24.1 | 0.00 | 1.12 | 1.07 | 96 | 1009.2 |
| 20260506132958 | 7 | 231 | 12.9 | 24.1 | 0.00 | 1.12 | 1.07 | 97 | 1009.2 |
| 20260506132750 | 7 | 255 | 11.3 | 24.1 | 0.00 | 1.12 | 1.07 | 97 | 1009.2 |
| 20260506132543 | 7 | 226 | 11.3 | 24.1 | 0.00 | 1.12 | 1.07 | 97 | 1009.1 |
| 20260506132340 | 7 | 225 | 11.3 | 24.1 | 0.00 | 1.12 | 1.07 | 97 | 1009.1 |
| 20260506132131 | 7 | 226 | 11.3 | 24.1 | 0.00 | 1.12 | 1.07 | 97 | 1009.2 |
| 20260506131923 | 7 | 242 | 11.3 | 24.1 | 0.00 | 1.14 | 1.07 | 97 | 1009.0 |
| 20260506131725 | 7 | 242 | 11.3 | 24.1 | 0.00 | 1.17 | 1.07 | 97 | 1009.1 |
| 20260506131523 | 7 | 235 | 11.3 | 24.1 | 0.00 | 1.17 | 1.07 | 97 | 1009.0 |
| 20260506131318 | 7 | 225 | 11.3 | 24.1 | 0.00 | 1.17 | 1.07 | 97 | 1009.1 |
| 20260506131112 | 7 | 228 | 11.3 | 24.1 | 0.00 | 1.17 | 1.07 | 96 | 1009.0 |
| 20260506130910 | 7 | 215 | 11.3 | 24.1 | 0.00 | 1.17 | 1.07 | 96 | 1009.0 |
| 20260506130705 | 7 | 238 | 9.7 | 24.1 | 0.00 | 1.17 | 1.07 | 96 | 1008.9 |
| 20260506130457 | 7 | 229 | 11.3 | 24.1 | 0.00 | 1.17 | 1.07 | 96 | 1009.0 |
| 20260506130250 | 7 | 231 | 11.3 | 24.1 | 0.00 | 1.17 | 1.07 | 96 | 1009.0 |
| 20260506130046 | 7 | 247 | 11.3 | 24.1 | 0.00 | 1.17 | 1.07 | 96 | 1008.9 |
| 20260506125529 | 7 | 238 | 11.3 | 25.7 | 0.00 | 1.17 | 1.07 | 96 | 1008.8 |
| 20260506125320 | 7 | 242 | 9.7 | 25.7 | 0.00 | 1.17 | 1.07 | 96 | 1008.9 |
| 20260506125118 | 7 | 261 | 9.7 | 25.7 | 0.00 | 1.17 | 1.07 | 96 | 1008.9 |
| 20260506124912 | 7 | 236 | 9.7 | 25.7 | 0.00 | 1.17 | 1.07 | 96 | 1008.8 |
| 20260506124355 | 7 | 234 | 8.0 | 25.7 | 0.00 | 1.17 | 1.07 | 97 | 1008.9 |
| 20260506123829 | 7 | 268 | 6.4 | 25.7 | 0.00 | 1.19 | 1.07 | 96 | 1008.8 |
| 20260506123622 | 7 | 236 | 4.8 | 17.7 | 0.00 | 1.19 | 1.07 | 96 | 1008.8 |
| 20260506123418 | 7 | 241 | 4.8 | 17.7 | 0.00 | 1.19 | 1.07 | 96 | 1008.7 |
| 20260506123219 | 7 | 283 | 6.4 | 17.7 | 0.00 | 1.19 | 1.07 | 96 | 1008.8 |
| 20260506123018 | 7 | 279 | 6.4 | 17.7 | 0.00 | 1.19 | 1.07 | 96 | 1008.7 |
| 20260506122812 | 7 | 271 | 6.4 | 17.7 | 0.00 | 1.19 | 1.07 | 96 | 1008.7 |
| 20260506122245 | 7 | 271 | 4.8 | 17.7 | 0.00 | 1.19 | 1.07 | 96 | 1008.5 |
| 20260506122043 | 7 | 316 | 4.8 | 17.7 | 0.00 | 1.19 | 1.07 | 96 | 1008.6 |
| 20260506121838 | 7 | 226 | 4.8 | 17.7 | 0.00 | 1.19 | 1.07 | 96 | 1008.4 |
| 20260506121633 | 7 | 231 | 4.8 | 17.7 | 0.00 | 1.19 | 1.07 | 96 | 1008.4 |
| 20260506121427 | 7 | 283 | 6.4 | 17.7 | 0.00 | 1.19 | 1.07 | 95 | 1008.5 |
| 20260506121218 | 7 | 254 | 6.4 | 17.7 | 0.00 | 1.19 | 1.07 | 95 | 1008.4 |
| 20260506121009 | 7 | 271 | 6.4 | 17.7 | 0.00 | 1.19 | 1.07 | 95 | 1008.5 |
| 20260506120809 | 7 | 261 | 6.4 | 17.7 | 0.00 | 1.19 | 1.07 | 95 | 1008.5 |
| 20260506120602 | 7 | 235 | 6.4 | 17.7 | 0.00 | 1.19 | 1.07 | 95 | 1008.4 |
| 20260506120352 | 7 | 237 | 4.8 | 17.7 | 0.00 | 1.22 | 1.07 | 94 | 1008.4 |
| 20260506120148 | 7 | 257 | 3.2 | 16.1 | 0.00 | 1.22 | 1.07 | 95 | 1008.4 |
| 20260506115945 | 7 | 285 | 4.8 | 16.1 | 0.00 | 1.22 | 1.07 | 95 | 1008.4 |
| 20260506115419 | 7 | 259 | 4.8 | 16.1 | 0.00 | 1.22 | 1.07 | 95 | 1008.3 |
| 20260506115215 | 7 | 283 | 4.8 | 16.1 | 0.00 | 1.22 | 1.07 | 94 | 1008.3 |
| 20260506115013 | 7 | 238 | 4.8 | 12.9 | 0.00 | 1.22 | 1.07 | 94 | 1008.4 |
| 20260506114811 | 7 | 305 | 4.8 | 14.5 | 0.00 | 1.22 | 1.07 | 94 | 1008.3 |
| 20260506114605 | 7 | 237 | 4.8 | 14.5 | 0.00 | 1.22 | 1.07 | 94 | 1008.3 |
| 20260506114357 | 7 | 269 | 4.8 | 14.5 | 0.00 | 1.22 | 1.07 | 95 | 1008.3 |
| 20260506114151 | 7 | 253 | 4.8 | 14.5 | 0.00 | 1.24 | 1.07 | 94 | 1008.4 |
| 20260506113941 | 7 | 250 | 4.8 | 14.5 | 0.00 | 1.24 | 1.07 | 94 | 1008.4 |
| 20260506113732 | 7 | 249 | 3.2 | 16.1 | 0.00 | 1.24 | 1.07 | 94 | 1008.3 |
| 20260506113534 | 7 | 302 | 4.8 | 16.1 | 0.00 | 1.24 | 1.07 | 94 | 1008.2 |
| 20260506113017 | 7 | 250 | 4.8 | 16.1 | 0.00 | 1.24 | 1.07 | 94 | 1008.2 |
| 20260506112811 | 7 | 255 | 6.4 | 16.1 | 0.00 | 1.24 | 1.07 | 94 | 1008.1 |
| 20260506112602 | 7 | 243 | 6.4 | 16.1 | 0.00 | 1.24 | 1.07 | 95 | 1008.2 |
| 20260506112359 | 7 | 244 | 6.4 | 16.1 | 0.00 | 1.24 | 1.07 | 95 | 1008.2 |
| 20260506112157 | 7 | 214 | 6.4 | 16.1 | 0.00 | 1.24 | 1.07 | 95 | 1008.1 |
| 20260506111951 | 7 | 283 | 4.8 | 16.1 | 0.00 | 1.24 | 1.07 | 94 | 1008.1 |
| 20260506111743 | 7 | 252 | 4.8 | 16.1 | 0.00 | 1.24 | 1.07 | 96 | 1008.1 |
| 20260506111211 | 7 | 250 | 4.8 | 20.9 | 0.00 | 1.24 | 1.07 | 97 | 1008.1 |
| 20260506111010 | 7 | 230 | 4.8 | 20.9 | 0.00 | 1.24 | 1.07 | 97 | 1008.1 |
| 20260506110808 | 7 | 278 | 6.4 | 20.9 | 0.00 | 1.24 | 1.07 | 98 | 1008.1 |
| 20260506110602 | 7 | 244 | 6.4 | 20.9 | 0.00 | 1.24 | 1.07 | 98 | 1008.2 |
| 20260506110357 | 7 | 241 | 8.0 | 20.9 | 0.00 | 1.24 | 1.07 | 98 | 1008.2 |
| 20260506110157 | 6 | 257 | 9.7 | 20.9 | 0.00 | 1.24 | 1.07 | 97 | 1008.2 |
| 20260506105957 | 6 | 245 | 8.0 | 20.9 | 0.00 | 1.24 | 1.07 | 97 | 1008.2 |
| 20260506105757 | 6 | 236 | 8.0 | 20.9 | 0.00 | 1.24 | 1.07 | 97 | 1008.2 |
| 20260506105553 | 6 | 269 | 8.0 | 20.9 | 0.00 | 1.24 | 1.07 | 97 | 1008.2 |
| 20260506105350 | 6 | 269 | 8.0 | 19.3 | 0.00 | 1.24 | 1.07 | 97 | 1008.3 |
| 20260506105142 | 6 | 235 | 8.0 | 19.3 | 0.00 | 1.24 | 1.07 | 97 | 1008.2 |
| 20260506104933 | 6 | 250 | 8.0 | 19.3 | 0.00 | 1.24 | 1.07 | 98 | 1008.3 |
| 20260506104045 | 6 | 231 | 8.0 | 25.7 | 0.00 | 1.24 | 1.07 | 98 | 1008.3 |
| 20260506103837 | 6 | 238 | 9.7 | 25.7 | 0.00 | 1.24 | 1.07 | 98 | 1008.3 |
| 20260506103627 | 6 | 255 | 11.3 | 25.7 | 0.00 | 1.22 | 1.04 | 98 | 1008.4 |
| 20260506103109 | 6 | 214 | 12.9 | 25.7 | 0.08 | 1.22 | 1.04 | 98 | 1008.4 |
| 20260506102542 | 6 | 215 | 11.3 | 24.1 | 0.08 | 1.22 | 1.04 | 98 | 1008.2 |
| 20260506102341 | 6 | 234 | 11.3 | 24.1 | 0.08 | 1.22 | 1.04 | 98 | 1008.3 |
| 20260506102136 | 6 | 266 | 11.3 | 24.1 | 0.08 | 1.22 | 1.04 | 98 | 1008.2 |
| 20260506101932 | 6 | 241 | 11.3 | 22.5 | 0.08 | 1.22 | 1.04 | 98 | 1008.2 |
| 20260506101728 | 6 | 250 | 11.3 | 22.5 | 0.08 | 1.22 | 1.04 | 98 | 1008.1 |
| 20260506101212 | 6 | 235 | 11.3 | 22.5 | 0.15 | 1.22 | 1.02 | 98 | 1008.0 |
| 20260506101008 | 6 | 226 | 9.7 | 20.9 | 0.18 | 1.22 | 1.02 | 98 | 1008.2 |
| 20260506100805 | 6 | 238 | 9.7 | 20.9 | 0.20 | 1.22 | 1.02 | 98 | 1008.1 |
| 20260506100603 | 6 | 239 | 8.0 | 20.9 | 0.20 | 1.22 | 1.02 | 98 | 1008.2 |
| 20260506100358 | 6 | 280 | 8.0 | 17.7 | 0.20 | 1.19 | 1.02 | 98 | 1008.0 |
| 20260506100154 | 6 | 235 | 8.0 | 17.7 | 0.33 | 1.19 | 1.02 | 98 | 1008.0 |
| 20260506095950 | 6 | 227 | 6.4 | 16.1 | 0.33 | 1.19 | 1.02 | 98 | 1007.9 |
| 20260506095750 | 6 | 243 | 6.4 | 16.1 | 0.28 | 1.17 | 0.99 | 98 | 1008.0 |
| 20260506095237 | 6 | 236 | 8.0 | 20.9 | 0.33 | 1.14 | 0.97 | 98 | 1008.0 |
| 20260506095030 | 6 | 241 | 8.0 | 20.9 | 0.36 | 1.12 | 0.94 | 98 | 1007.9 |
| 20260506094825 | 6 | 237 | 9.7 | 20.9 | 0.46 | 1.12 | 0.94 | 98 | 1007.8 |
| 20260506094616 | 6 | 249 | 9.7 | 20.9 | 0.43 | 1.12 | 0.94 | 98 | 1007.9 |
| 20260506093738 | 6 | 230 | 9.7 | 20.9 | 0.41 | 1.04 | 0.86 | 98 | 1007.8 |
| 20260506093538 | 7 | 236 | 8.0 | 16.1 | 0.33 | 1.02 | 0.84 | 98 | 1007.8 |
| 20260506093334 | 7 | 251 | 8.0 | 20.9 | 0.33 | 1.02 | 0.84 | 98 | 1007.8 |
| 20260506093130 | 7 | 232 | 8.0 | 20.9 | 0.36 | 1.02 | 0.84 | 98 | 1007.7 |
| 20260506092931 | 7 | 259 | 8.0 | 20.9 | 0.46 | 0.99 | 0.81 | 98 | 1007.7 |
| 20260506092723 | 7 | 250 | 8.0 | 20.9 | 0.61 | 0.97 | 0.81 | 98 | 1007.7 |
| 20260506092516 | 7 | 237 | 9.7 | 20.9 | 0.74 | 0.94 | 0.79 | 98 | 1007.7 |
| 20260506092307 | 7 | 244 | 9.7 | 20.9 | 0.36 | 0.94 | 0.74 | 98 | 1007.6 |
| 20260506091741 | 7 | 242 | 8.0 | 20.9 | 0.89 | 0.89 | 0.71 | 98 | 1007.6 |
| 20260506091531 | 7 | 255 | 8.0 | 20.9 | 0.97 | 0.84 | 0.66 | 98 | 1007.7 |
| 20260506091325 | 7 | 223 | 8.0 | 17.7 | 1.24 | 0.81 | 0.64 | 98 | 1007.6 |
| 20260506091121 | 7 | 236 | 6.4 | 22.5 | 0.74 | 0.76 | 0.61 | 98 | 1007.6 |
| 20260506090916 | 7 | 259 | 8.0 | 22.5 | 0.81 | 0.74 | 0.58 | 98 | 1007.6 |
| 20260506090716 | 7 | 239 | 8.0 | 22.5 | 0.81 | 0.74 | 0.56 | 98 | 1007.6 |
| 20260506090203 | 7 | 233 | 9.7 | 22.5 | 0.94 | 0.64 | 0.46 | 98 | 1007.6 |
| 20260506085326 | 7 | 232 | 8.0 | 22.5 | 0.69 | 0.53 | 0.36 | 97 | 1007.4 |
| 20260506084808 | 7 | 252 | 6.4 | 16.1 | 0.84 | 0.43 | 0.28 | 98 | 1007.3 |
| 20260506084602 | 7 | 257 | 6.4 | 16.1 | 0.94 | 0.41 | 0.23 | 98 | 1007.2 |
| 20260506084402 | 7 | 277 | 3.2 | 16.1 | 1.12 | 0.38 | 0.20 | 98 | 1007.1 |
| 20260506084200 | 7 | 229 | 3.2 | 12.9 | 0.64 | 0.36 | 0.18 | 98 | 1007.2 |
| 20260506083952 | 7 | 216 | 3.2 | 12.9 | 0.46 | 0.33 | 0.15 | 98 | 1007.0 |
| 20260506083747 | 7 | 205 | 3.2 | 12.9 | 0.46 | 0.30 | 0.13 | 98 | 1007.0 |
| 20260506083222 | 7 | 216 | 4.8 | 12.9 | 0.28 | 0.28 | 0.08 | 97 | 1006.8 |
| 20260506083012 | 7 | 234 | 4.8 | 12.9 | 0.28 | 0.28 | 0.08 | 97 | 1006.8 |
| 20260506082812 | 7 | 236 | 4.8 | 11.3 | 0.33 | 0.25 | 0.08 | 97 | 1006.8 |
| 20260506082603 | 7 | 241 | 4.8 | 11.3 | 0.36 | 0.25 | 0.08 | 97 | 1006.7 |
| 20260506082355 | 7 | 226 | 4.8 | 9.7 | 0.25 | 0.23 | 0.05 | 97 | 1006.6 |
| 20260506081828 | 7 | 232 | 4.8 | 9.7 | 0.00 | 0.20 | 0.03 | 97 | 1006.6 |
| 20260506081628 | 7 | 190 | 3.2 | 9.7 | 0.00 | 0.18 | 0.00 | 97 | 1006.5 |
| 20260506081427 | 7 | 227 | 4.8 | 11.3 | 0.00 | 0.18 | 0.00 | 96 | 1006.5 |
| 20260506081218 | 7 | 255 | 4.8 | 11.3 | 0.00 | 0.18 | 0.00 | 96 | 1006.5 |
| 20260506081016 | 7 | 229 | 4.8 | 11.3 | 0.00 | 0.18 | 0.00 | 96 | 1006.6 |
| 20260506080807 | 7 | 243 | 4.8 | 11.3 | 0.00 | 0.18 | 0.00 | 96 | 1006.4 |
| 20260506080247 | 7 | 248 | 4.8 | 11.3 | 0.00 | 0.18 | 0.00 | 96 | 1006.5 |
| 20260506073346 | 8 | 117 | 0.0 | 0.0 | 0.00 | 0.18 | 0.00 | 93 | 1006.2 |
| 20260506073140 | 8 | 117 | 0.0 | 0.0 | 0.00 | 0.18 | 0.00 | 93 | 1006.1 |
| 20260506072621 | 7 | 98 | 0.0 | 3.2 | 0.00 | 0.18 | 0.00 | 93 | 1006.1 |
| 20260506072420 | 7 | 89 | 0.0 | 3.2 | 0.00 | 0.18 | 0.00 | 93 | 1006.1 |
| 20260506072222 | 7 | 113 | 1.6 | 6.4 | 0.00 | 0.18 | 0.00 | 93 | 1006.1 |
| 20260506072016 | 7 | 116 | 1.6 | 6.4 | 0.00 | 0.18 | 0.00 | 93 | 1006.1 |
| 20260506071812 | 7 | 126 | 1.6 | 6.4 | 0.00 | 0.18 | 0.00 | 93 | 1006.1 |
| 20260506071612 | 7 | 116 | 3.2 | 6.4 | 0.00 | 0.18 | 0.00 | 93 | 1006.0 |
| 20260506071411 | 7 | 129 | 3.2 | 6.4 | 0.00 | 0.18 | 0.00 | 93 | 1006.0 |
| 20260506071206 | 7 | 138 | 3.2 | 6.4 | 0.00 | 0.18 | 0.00 | 93 | 1006.0 |
| 20260506070307 | 7 | 139 | 3.2 | 6.4 | 0.00 | 0.18 | 0.00 | 93 | 1006.0 |
| 20260506070106 | 7 | 93 | 3.2 | 4.8 | 0.00 | 0.18 | 0.00 | 93 | 1006.0 |
| 20260506062408 | 6 | 111 | 1.6 | 4.8 | 0.00 | 0.18 | 0.00 | 94 | 1006.1 |
| 20260506062205 | 6 | 115 | 1.6 | 4.8 | 0.00 | 0.18 | 0.00 | 94 | 1006.1 |
| 20260506062001 | 6 | 119 | 1.6 | 4.8 | 0.00 | 0.18 | 0.00 | 94 | 1006.2 |
| 20260506061438 | 6 | 113 | 3.2 | 4.8 | 0.00 | 0.18 | 0.00 | 94 | 1006.2 |
| 20260506061238 | 6 | 115 | 3.2 | 8.0 | 0.00 | 0.18 | 0.00 | 94 | 1006.2 |
| 20260506061033 | 7 | 120 | 3.2 | 8.0 | 0.00 | 0.18 | 0.00 | 93 | 1006.2 |
| 20260506060826 | 6 | 117 | 3.2 | 8.0 | 0.00 | 0.18 | 0.00 | 93 | 1006.2 |
| 20260506060619 | 7 | 100 | 3.2 | 8.0 | 0.00 | 0.20 | 0.00 | 93 | 1006.2 |
| 20260506060413 | 6 | 103 | 3.2 | 8.0 | 0.00 | 0.20 | 0.00 | 93 | 1006.2 |
| 20260506060209 | 6 | 108 | 3.2 | 8.0 | 0.00 | 0.20 | 0.00 | 93 | 1006.2 |
| 20260506051240 | 7 | 103 | 0.0 | 4.8 | 0.00 | 0.36 | 0.00 | 92 | 1006.1 |
| 20260506050709 | 7 | 101 | 0.0 | 1.6 | 0.00 | 0.38 | 0.00 | 92 | 1006.0 |
| 20260506050505 | 7 | 114 | 0.0 | 1.6 | 0.00 | 0.41 | 0.00 | 92 | 1006.1 |
| 20260506050259 | 7 | 115 | 0.0 | 0.0 | 0.00 | 0.43 | 0.00 | 92 | 1006.1 |
| 20260506044928 | 6 | 113 | 0.0 | 0.0 | 0.00 | 0.53 | 0.00 | 94 | 1006.1 |
| 20260506044724 | 6 | 113 | 0.0 | 0.0 | 0.00 | 0.56 | 0.00 | 94 | 1006.0 |
| 20260506044518 | 6 | 113 | 0.0 | 0.0 | 0.00 | 0.56 | 0.00 | 94 | 1006.2 |
| 20260506044316 | 6 | 113 | 0.0 | 0.0 | 0.00 | 0.56 | 0.00 | 95 | 1006.2 |
| 20260506044108 | 6 | 113 | 0.0 | 0.0 | 0.00 | 0.56 | 0.00 | 95 | 1006.2 |
| 20260506043545 | 6 | 113 | 0.0 | 0.0 | 0.00 | 0.61 | 0.00 | 95 | 1006.2 |
| 20260506043341 | 6 | 113 | 0.0 | 0.0 | 0.00 | 0.61 | 0.00 | 95 | 1006.2 |
| 20260506043138 | 6 | 113 | 0.0 | 0.0 | 0.00 | 0.61 | 0.00 | 95 | 1006.2 |
| 20260506042620 | 6 | 113 | 0.0 | 0.0 | 0.00 | 0.64 | 0.00 | 95 | 1006.1 |
| 20260506042410 | 6 | 113 | 0.0 | 0.0 | 0.00 | 0.64 | 0.00 | 95 | 1006.2 |
| 20260506042204 | 6 | 113 | 0.0 | 0.0 | 0.00 | 0.64 | 0.00 | 95 | 1006.3 |
| 20260506041958 | 6 | 113 | 0.0 | 0.0 | 0.00 | 0.66 | 0.00 | 95 | 1006.3 |
| 20260506041109 | 6 | 113 | 0.0 | 4.8 | 0.00 | 0.69 | 0.00 | 95 | 1006.2 |
| 20260506040906 | 6 | 113 | 0.0 | 4.8 | 0.00 | 0.69 | 0.00 | 95 | 1006.1 |
| 20260506040020 | 6 | 118 | 1.6 | 6.4 | 0.00 | 0.71 | 0.00 | 95 | 1006.2 |
| 20260506035820 | 6 | 120 | 1.6 | 6.4 | 0.00 | 0.71 | 0.00 | 95 | 1006.2 |
| 20260506035614 | 6 | 101 | 1.6 | 6.4 | 0.00 | 0.71 | 0.00 | 95 | 1006.3 |
| 20260506035407 | 6 | 123 | 1.6 | 6.4 | 0.00 | 0.71 | 0.00 | 95 | 1006.2 |
| 20260506035205 | 6 | 108 | 1.6 | 6.4 | 0.00 | 0.71 | 0.00 | 95 | 1006.2 |
| 20260506035006 | 6 | 117 | 1.6 | 6.4 | 0.00 | 0.71 | 0.00 | 95 | 1006.1 |
| 20260506034755 | 6 | 110 | 1.6 | 6.4 | 0.00 | 0.71 | 0.00 | 95 | 1006.2 |
| 20260506034554 | 6 | 98 | 1.6 | 6.4 | 0.00 | 0.71 | 0.00 | 95 | 1006.2 |
| 20260506034345 | 6 | 103 | 1.6 | 6.4 | 0.00 | 0.71 | 0.00 | 95 | 1006.1 |
| 20260506034136 | 6 | 117 | 1.6 | 6.4 | 0.00 | 0.71 | 0.00 | 95 | 1006.2 |
| 20260506033926 | 6 | 118 | 0.0 | 3.2 | 0.00 | 0.71 | 0.00 | 95 | 1006.1 |
| 20260506033716 | 6 | 113 | 0.0 | 6.4 | 0.00 | 0.71 | 0.00 | 95 | 1006.2 |
| 20260506033512 | 6 | 117 | 0.0 | 6.4 | 0.00 | 0.71 | 0.00 | 95 | 1006.1 |
| 20260506033304 | 6 | 113 | 1.6 | 6.4 | 0.00 | 0.71 | 0.00 | 95 | 1006.2 |
| 20260506033100 | 6 | 120 | 1.6 | 6.4 | 0.00 | 0.71 | 0.00 | 95 | 1006.2 |
| 20260506032900 | 6 | 113 | 1.6 | 6.4 | 0.00 | 0.71 | 0.00 | 95 | 1006.3 |
| 20260506032700 | 6 | 103 | 1.6 | 6.4 | 0.00 | 0.71 | 0.00 | 95 | 1006.3 |
| 20260506032455 | 6 | 125 | 1.6 | 6.4 | 0.00 | 0.71 | 0.00 | 95 | 1006.4 |
| 20260506032255 | 6 | 112 | 1.6 | 6.4 | 0.00 | 0.71 | 0.00 | 95 | 1006.4 |
| 20260506032051 | 6 | 113 | 1.6 | 6.4 | 0.00 | 0.71 | 0.00 | 95 | 1006.5 |
| 20260506031846 | 6 | 134 | 1.6 | 6.4 | 0.00 | 0.71 | 0.00 | 95 | 1006.4 |
| 20260506031331 | 6 | 122 | 3.2 | 8.0 | 0.00 | 0.71 | 0.00 | 95 | 1006.6 |
| 20260506031123 | 6 | 117 | 3.2 | 8.0 | 0.00 | 0.74 | 0.00 | 95 | 1006.6 |
| 20260506030922 | 6 | 129 | 3.2 | 8.0 | 0.00 | 0.74 | 0.00 | 94 | 1006.6 |
| 20260506030721 | 6 | 117 | 3.2 | 8.0 | 0.00 | 0.74 | 0.00 | 94 | 1006.7 |
| 20260506030522 | 6 | 120 | 3.2 | 8.0 | 0.00 | 0.74 | 0.00 | 94 | 1006.7 |
| 20260506030320 | 6 | 119 | 3.2 | 8.0 | 0.00 | 0.74 | 0.00 | 94 | 1006.8 |
| 20260506025436 | 6 | 129 | 1.6 | 4.8 | 0.00 | 0.74 | 0.00 | 93 | 1006.9 |
| 20260506025237 | 6 | 101 | 1.6 | 4.8 | 0.00 | 0.74 | 0.00 | 93 | 1006.8 |
| 20260506025027 | 7 | 111 | 3.2 | 4.8 | 0.00 | 0.74 | 0.00 | 93 | 1006.9 |
| 20260506024823 | 7 | 114 | 3.2 | 4.8 | 0.00 | 0.74 | 0.00 | 93 | 1006.8 |
| 20260506024621 | 7 | 114 | 1.6 | 4.8 | 0.00 | 0.74 | 0.00 | 93 | 1006.8 |
| 20260506024415 | 7 | 108 | 1.6 | 4.8 | 0.00 | 0.74 | 0.00 | 93 | 1006.9 |
| 20260506024206 | 7 | 115 | 0.0 | 4.8 | 0.00 | 0.76 | 0.00 | 92 | 1006.8 |
| 20260506023956 | 7 | 132 | 0.0 | 3.2 | 0.00 | 0.76 | 0.00 | 92 | 1006.8 |
| 20260506023747 | 7 | 122 | 0.0 | 1.6 | 0.00 | 0.76 | 0.00 | 92 | 1006.8 |
| 20260506023541 | 7 | 109 | 0.0 | 1.6 | 0.00 | 0.76 | 0.00 | 92 | 1006.8 |
| 20260506023014 | 7 | 109 | 0.0 | 0.0 | 0.00 | 0.79 | 0.00 | 93 | 1006.8 |
| 20260506022814 | 7 | 109 | 0.0 | 0.0 | 0.00 | 0.79 | 0.00 | 92 | 1006.9 |
| 20260506022605 | 7 | 109 | 0.0 | 4.8 | 0.00 | 0.81 | 0.00 | 92 | 1007.0 |
| 20260506022356 | 7 | 109 | 0.0 | 3.2 | 0.00 | 0.81 | 0.00 | 92 | 1007.0 |
| 20260506022155 | 7 | 106 | 0.0 | 3.2 | 0.00 | 0.81 | 0.00 | 92 | 1007.2 |
| 20260506021949 | 7 | 108 | 0.0 | 3.2 | 0.00 | 0.84 | 0.00 | 92 | 1007.1 |
| 20260506021749 | 7 | 109 | 0.0 | 3.2 | 0.00 | 0.84 | 0.00 | 92 | 1007.2 |
| 20260506021229 | 7 | 139 | 0.0 | 0.0 | 0.00 | 0.84 | 0.00 | 92 | 1007.2 |
| 20260506021023 | 7 | 139 | 0.0 | 0.0 | 0.00 | 0.84 | 0.00 | 92 | 1007.3 |
| 20260506020815 | 7 | 113 | 0.0 | 1.6 | 0.00 | 0.84 | 0.00 | 92 | 1007.4 |
| 20260506020612 | 7 | 111 | 0.0 | 1.6 | 0.00 | 0.84 | 0.00 | 92 | 1007.4 |
| 20260506020411 | 7 | 167 | 0.0 | 0.0 | 0.00 | 0.84 | 0.00 | 92 | 1007.4 |
| 20260506020207 | 7 | 167 | 0.0 | 3.2 | 0.00 | 0.84 | 0.00 | 92 | 1007.4 |
| 20260506020006 | 7 | 167 | 0.0 | 3.2 | 0.00 | 0.84 | 0.00 | 92 | 1007.4 |
| 20260506015446 | 7 | 109 | 1.6 | 0.0 | 0.00 | 0.84 | 0.00 | 93 | 1007.4 |
| 20260506015239 | 7 | 116 | 1.6 | 9.7 | 0.00 | 0.84 | 0.00 | 93 | 1007.6 |
| 20260506015031 | 7 | 111 | 1.6 | 9.7 | 0.00 | 0.86 | 0.00 | 93 | 1007.4 |
| 20260506014832 | 7 | 135 | 1.6 | 9.7 | 0.00 | 0.86 | 0.00 | 93 | 1007.6 |
| 20260506014259 | 7 | 113 | 3.2 | 9.7 | 0.00 | 0.86 | 0.00 | 93 | 1007.5 |
| 20260506014053 | 7 | 95 | 4.8 | 9.7 | 0.00 | 0.86 | 0.00 | 93 | 1007.5 |
| 20260506013852 | 7 | 107 | 4.8 | 9.7 | 0.00 | 0.86 | 0.00 | 93 | 1007.6 |
| 20260506013652 | 7 | 111 | 4.8 | 9.7 | 0.00 | 0.86 | 0.00 | 93 | 1007.6 |
| 20260506013445 | 7 | 117 | 3.2 | 8.0 | 0.00 | 0.86 | 0.00 | 93 | 1007.6 |
| 20260506013242 | 7 | 84 | 3.2 | 6.4 | 0.00 | 0.86 | 0.00 | 92 | 1007.6 |
| 20260506012712 | 7 | 122 | 0.0 | 6.4 | 0.00 | 0.86 | 0.00 | 90 | 1007.6 |
| 20260506012504 | 7 | 108 | 0.0 | 4.8 | 0.00 | 0.86 | 0.00 | 89 | 1007.6 |
| 20260506012308 | 8 | 117 | 0.0 | 3.2 | 0.00 | 0.86 | 0.00 | 88 | 1007.7 |
| 20260506012100 | 8 | 100 | 0.0 | 0.0 | 0.00 | 0.86 | 0.00 | 88 | 1007.6 |
| 20260506011850 | 8 | 96 | 0.0 | 0.0 | 0.00 | 0.86 | 0.00 | 88 | 1007.7 |
| 20260506011650 | 8 | 150 | 0.0 | 4.8 | 0.00 | 0.86 | 0.00 | 88 | 1007.8 |
| 20260506011450 | 8 | 146 | 0.0 | 4.8 | 0.00 | 0.86 | 0.00 | 88 | 1007.8 |
| 20260506011250 | 8 | 226 | 1.6 | 4.8 | 0.00 | 0.86 | 0.00 | 88 | 1007.9 |
| 20260506011048 | 8 | 215 | 1.6 | 4.8 | 0.00 | 0.86 | 0.00 | 88 | 1007.9 |
| 20260506010844 | 8 | 210 | 1.6 | 6.4 | 0.00 | 0.86 | 0.00 | 88 | 1007.9 |
| 20260506010634 | 8 | 190 | 1.6 | 6.4 | 0.00 | 0.86 | 0.00 | 89 | 1007.9 |
| 20260506010425 | 8 | 193 | 0.0 | 6.4 | 0.00 | 0.89 | 0.00 | 89 | 1008.0 |
| 20260506005859 | 8 | 157 | 0.0 | 6.4 | 0.00 | 0.89 | 0.00 | 89 | 1008.2 |
| 20260506005657 | 8 | 229 | 0.0 | 6.4 | 0.00 | 0.89 | 0.00 | 89 | 1008.2 |
| 20260506005457 | 8 | 221 | 0.0 | 6.4 | 0.00 | 0.89 | 0.00 | 88 | 1008.2 |
| 20260506005253 | 8 | 229 | 1.6 | 6.4 | 0.00 | 0.89 | 0.00 | 88 | 1008.1 |
| 20260506005053 | 8 | 196 | 0.0 | 6.4 | 0.00 | 0.89 | 0.00 | 88 | 1008.2 |
| 20260506004525 | 8 | 259 | 0.0 | 3.2 | 0.00 | 0.89 | 0.00 | 89 | 1008.1 |
| 20260506004316 | 8 | 212 | 0.0 | 3.2 | 0.00 | 0.89 | 0.00 | 89 | 1008.1 |
| 20260506004115 | 8 | 217 | 0.0 | 1.6 | 0.00 | 0.89 | 0.00 | 89 | 1008.1 |
| 20260506003912 | 8 | 222 | 0.0 | 1.6 | 0.00 | 0.89 | 0.00 | 89 | 1008.1 |
| 20260506003701 | 8 | 231 | 0.0 | 1.6 | 0.00 | 0.89 | 0.00 | 89 | 1008.2 |
| 20260506003457 | 8 | 236 | 0.0 | 3.2 | 0.00 | 0.89 | 0.00 | 89 | 1008.2 |
| 20260506003248 | 8 | 224 | 0.0 | 3.2 | 0.00 | 0.89 | 0.00 | 89 | 1008.2 |
| 20260506002723 | 8 | 242 | 0.0 | 3.2 | 0.00 | 0.89 | 0.00 | 88 | 1008.3 |
| 20260506002159 | 8 | 219 | 1.6 | 11.3 | 0.00 | 0.89 | 0.00 | 88 | 1008.5 |
| 20260506001952 | 8 | 214 | 1.6 | 11.3 | 0.00 | 0.89 | 0.00 | 88 | 1008.5 |
| 20260506001742 | 8 | 232 | 3.2 | 11.3 | 0.00 | 0.89 | 0.00 | 88 | 1008.6 |
| 20260506001531 | 8 | 219 | 3.2 | 11.3 | 0.00 | 0.89 | 0.00 | 88 | 1008.6 |
| 20260506001328 | 8 | 226 | 3.2 | 11.3 | 0.00 | 0.89 | 0.00 | 88 | 1008.8 |
| 20260506001125 | 8 | 208 | 3.2 | 11.3 | 0.00 | 0.89 | 0.00 | 88 | 1008.9 |
| 20260506000920 | 8 | 220 | 3.2 | 11.3 | 0.00 | 0.89 | 0.00 | 88 | 1009.0 |
| 20260506000715 | 8 | 226 | 3.2 | 11.3 | 0.00 | 0.89 | 0.00 | 87 | 1009.0 |
| 20260506000509 | 8 | 217 | 4.8 | 9.7 | 0.00 | 0.89 | 0.00 | 87 | 1009.0 |
| 20260506000302 | 8 | 236 | 3.2 | 9.7 | 0.00 | 0.89 | 0.00 | 87 | 1009.0 |
| 20260505235737 | 8 | 226 | 3.2 | 11.3 | 0.00 | 0.89 | 0.00 | 87 | 1009.2 |
| 20260505235528 | 8 | 217 | 3.2 | 11.3 | 0.00 | 0.89 | 0.00 | 87 | 1009.3 |
| 20260505235328 | 8 | 204 | 3.2 | 11.3 | 0.00 | 0.89 | 0.00 | 87 | 1009.3 |
| 20260505235117 | 8 | 252 | 3.2 | 11.3 | 0.00 | 0.89 | 0.00 | 87 | 1009.3 |
| 20260505234554 | 8 | 188 | 4.8 | 11.3 | 0.00 | 0.89 | 0.00 | 87 | 1009.3 |
| 20260505234349 | 8 | 207 | 4.8 | 11.3 | 0.00 | 0.89 | 0.00 | 87 | 1009.3 |
| 20260505234142 | 8 | 226 | 4.8 | 11.3 | 0.00 | 0.89 | 0.00 | 87 | 1009.4 |
| 20260505233939 | 8 | 252 | 3.2 | 11.3 | 0.00 | 0.89 | 0.00 | 87 | 1009.4 |
| 20260505233737 | 8 | 227 | 3.2 | 9.7 | 0.00 | 0.89 | 0.00 | 88 | 1009.3 |
| 20260505232858 | 8 | 233 | 1.6 | 8.0 | 0.00 | 0.89 | 0.00 | 89 | 1009.3 |
| 20260505232648 | 8 | 229 | 3.2 | 8.0 | 0.00 | 0.89 | 0.00 | 89 | 1009.2 |
| 20260505232445 | 8 | 226 | 3.2 | 11.3 | 0.00 | 0.89 | 0.00 | 89 | 1009.3 |
| 20260505232235 | 8 | 213 | 3.2 | 11.3 | 0.00 | 0.89 | 0.00 | 89 | 1009.2 |
| 20260505231715 | 8 | 210 | 4.8 | 11.3 | 0.00 | 0.89 | 0.00 | 89 | 1009.3 |
| 20260505231152 | 8 | 221 | 4.8 | 11.3 | 0.00 | 0.89 | 0.00 | 89 | 1009.3 |
| 20260505230954 | 8 | 256 | 3.2 | 11.3 | 0.00 | 0.89 | 0.00 | 89 | 1009.3 |
| 20260505230426 | 8 | 200 | 3.2 | 9.7 | 0.00 | 0.89 | 0.00 | 89 | 1009.3 |
| 20260505225545 | 8 | 229 | 3.2 | 9.7 | 0.00 | 0.89 | 0.00 | 89 | 1009.5 |
| 20260505225340 | 8 | 226 | 3.2 | 9.7 | 0.00 | 0.89 | 0.00 | 89 | 1009.6 |
| 20260505225135 | 8 | 240 | 3.2 | 16.1 | 0.00 | 0.89 | 0.00 | 89 | 1009.6 |
| 20260505224935 | 8 | 248 | 4.8 | 16.1 | 0.00 | 0.89 | 0.00 | 89 | 1009.6 |
| 20260505224735 | 8 | 196 | 4.8 | 16.1 | 0.00 | 0.89 | 0.00 | 89 | 1009.7 |
| 20260505224531 | 8 | 245 | 4.8 | 16.1 | 0.00 | 0.89 | 0.00 | 89 | 1009.8 |
| 20260505224326 | 8 | 238 | 4.8 | 16.1 | 0.00 | 0.89 | 0.00 | 89 | 1009.7 |
| 20260505224123 | 8 | 217 | 6.4 | 16.1 | 0.00 | 0.89 | 0.00 | 89 | 1009.7 |
| 20260505223917 | 8 | 236 | 6.4 | 16.1 | 0.00 | 0.89 | 0.00 | 88 | 1009.8 |
| 20260505223716 | 8 | 210 | 6.4 | 16.1 | 0.00 | 0.89 | 0.00 | 88 | 1009.7 |
| 20260505223506 | 8 | 239 | 6.4 | 16.1 | 0.00 | 0.89 | 0.00 | 88 | 1009.7 |
| 20260505222627 | 8 | 131 | 4.8 | 11.3 | 0.00 | 0.89 | 0.00 | 87 | 1009.7 |
| 20260505222419 | 8 | 203 | 4.8 | 11.3 | 0.00 | 0.89 | 0.00 | 87 | 1009.8 |
| 20260505222211 | 8 | 205 | 4.8 | 9.7 | 0.00 | 0.89 | 0.00 | 87 | 1009.7 |
| 20260505221647 | 8 | 226 | 4.8 | 9.7 | 0.00 | 0.89 | 0.00 | 88 | 1009.8 |
| 20260505221442 | 8 | 211 | 4.8 | 9.7 | 0.00 | 0.89 | 0.00 | 88 | 1009.8 |
| 20260505221241 | 8 | 212 | 4.8 | 9.7 | 0.00 | 0.89 | 0.00 | 87 | 1009.8 |
| 20260505221039 | 8 | 207 | 4.8 | 9.7 | 0.00 | 0.89 | 0.00 | 87 | 1009.7 |
| 20260505220520 | 8 | 219 | 4.8 | 11.3 | 0.00 | 0.89 | 0.00 | 85 | 1009.7 |
| 20260505215954 | 8 | 239 | 3.2 | 11.3 | 0.00 | 0.89 | 0.89 | 85 | 1009.7 |
| 20260505215755 | 8 | 213 | 4.8 | 11.3 | 0.00 | 0.89 | 0.89 | 85 | 1009.6 |
| 20260505215555 | 8 | 214 | 4.8 | 11.3 | 0.00 | 0.89 | 0.89 | 85 | 1009.7 |
| 20260505215354 | 9 | 253 | 3.2 | 11.3 | 0.00 | 0.89 | 0.89 | 85 | 1009.8 |
| 20260505215154 | 9 | 203 | 3.2 | 11.3 | 0.00 | 0.89 | 0.89 | 85 | 1009.8 |
| 20260505214629 | 9 | 207 | 3.2 | 9.7 | 0.00 | 0.89 | 0.89 | 85 | 1009.7 |
| 20260505214427 | 9 | 238 | 3.2 | 9.7 | 0.00 | 0.89 | 0.89 | 85 | 1009.7 |
| 20260505214218 | 9 | 221 | 4.8 | 9.7 | 0.00 | 0.89 | 0.89 | 85 | 1009.7 |
| 20260505213337 | 9 | 237 | 4.8 | 12.9 | 0.00 | 0.89 | 0.89 | 86 | 1009.7 |
| 20260505213129 | 9 | 214 | 4.8 | 12.9 | 0.00 | 0.89 | 0.89 | 87 | 1009.7 |
| 20260505212600 | 8 | 210 | 4.8 | 12.9 | 0.00 | 0.89 | 0.89 | 88 | 1009.7 |
| 20260505212350 | 8 | 221 | 4.8 | 12.9 | 0.00 | 0.89 | 0.89 | 89 | 1009.7 |
| 20260505211519 | 9 | 237 | 3.2 | 12.9 | 0.00 | 0.89 | 0.89 | 90 | 1009.6 |
| 20260505211311 | 9 | 205 | 3.2 | 16.1 | 0.00 | 0.89 | 0.89 | 90 | 1009.7 |
| 20260505211106 | 9 | 240 | 3.2 | 16.1 | 0.00 | 0.89 | 0.89 | 91 | 1009.7 |
| 20260505210900 | 9 | 208 | 3.2 | 16.1 | 0.00 | 0.89 | 0.89 | 91 | 1009.7 |
| 20260505210329 | 9 | 245 | 3.2 | 16.1 | 0.00 | 0.89 | 0.89 | 91 | 1009.7 |
| 20260505210122 | 9 | 201 | 3.2 | 16.1 | 0.00 | 0.89 | 0.89 | 91 | 1009.7 |
| 20260505205918 | 9 | 226 | 3.2 | 16.1 | 0.00 | 0.89 | 0.89 | 91 | 1009.8 |
| 20260505205713 | 9 | 250 | 3.2 | 16.1 | 0.00 | 0.89 | 0.89 | 91 | 1009.7 |
| 20260505205511 | 9 | 243 | 3.2 | 16.1 | 0.00 | 0.89 | 0.89 | 90 | 1009.8 |
| 20260505204941 | 9 | 247 | 3.2 | 14.5 | 0.00 | 0.89 | 0.89 | 90 | 1009.8 |
| 20260505204420 | 9 | 252 | 3.2 | 14.5 | 0.00 | 0.89 | 0.89 | 90 | 1009.9 |
| 20260505203847 | 9 | 226 | 1.6 | 9.7 | 0.00 | 0.89 | 0.89 | 91 | 1009.8 |
| 20260505203318 | 9 | 200 | 1.6 | 6.4 | 0.00 | 0.89 | 0.89 | 91 | 1009.8 |
| 20260505202756 | 9 | 223 | 3.2 | 6.4 | 0.00 | 0.89 | 0.89 | 91 | 1010.0 |
| 20260505202549 | 9 | 226 | 3.2 | 11.3 | 0.00 | 0.89 | 0.89 | 90 | 1010.0 |
| 20260505202024 | 9 | 242 | 3.2 | 11.3 | 0.00 | 0.89 | 0.89 | 90 | 1009.9 |
| 20260505201821 | 9 | 85 | 3.2 | 11.3 | 0.00 | 0.89 | 0.89 | 90 | 1010.0 |
| 20260505201615 | 9 | 214 | 3.2 | 11.3 | 0.00 | 0.89 | 0.89 | 89 | 1009.9 |
| 20260505201408 | 9 | 252 | 3.2 | 11.3 | 0.00 | 0.89 | 0.89 | 90 | 1009.8 |
| 20260505201208 | 9 | 251 | 3.2 | 11.3 | 0.00 | 0.89 | 0.89 | 90 | 1009.8 |
| 20260505201007 | 9 | 214 | 3.2 | 11.3 | 0.00 | 0.89 | 0.89 | 90 | 1009.8 |
| 20260505200806 | 9 | 234 | 3.2 | 11.3 | 0.00 | 0.89 | 0.89 | 90 | 1009.8 |
| 20260505200601 | 9 | 257 | 3.2 | 8.0 | 0.00 | 0.89 | 0.89 | 90 | 1009.8 |
| 20260505200353 | 9 | 208 | 3.2 | 8.0 | 0.00 | 0.89 | 0.89 | 90 | 1009.8 |
| 20260505200143 | 9 | 226 | 3.2 | 8.0 | 0.00 | 0.89 | 0.89 | 90 | 1009.8 |
| 20260505195937 | 9 | 210 | 3.2 | 8.0 | 0.00 | 0.89 | 0.89 | 90 | 1009.7 |
| 20260505195732 | 9 | 217 | 3.2 | 9.7 | 0.00 | 0.89 | 0.89 | 90 | 1009.8 |
| 20260505195523 | 9 | 236 | 1.6 | 9.7 | 0.00 | 0.89 | 0.89 | 90 | 1009.8 |
| 20260505194633 | 9 | 224 | 1.6 | 9.7 | 0.00 | 0.89 | 0.89 | 91 | 1009.7 |
| 20260505194434 | 9 | 229 | 1.6 | 9.7 | 0.00 | 0.89 | 0.89 | 91 | 1009.7 |
| 20260505194234 | 9 | 221 | 1.6 | 9.7 | 0.00 | 0.89 | 0.89 | 91 | 1009.6 |
| 20260505194027 | 9 | 224 | 1.6 | 9.7 | 0.00 | 0.89 | 0.89 | 92 | 1009.6 |
| 20260505193149 | 9 | 134 | 0.0 | 8.0 | 0.00 | 0.89 | 0.89 | 93 | 1009.2 |
| 20260505192948 | 9 | 153 | 0.0 | 8.0 | 0.00 | 0.89 | 0.89 | 93 | 1009.2 |
| 20260505192738 | 9 | 70 | 0.0 | 8.0 | 0.00 | 0.89 | 0.89 | 93 | 1009.2 |
| 20260505192222 | 9 | 210 | 0.0 | 8.0 | 0.00 | 0.89 | 0.89 | 93 | 1009.2 |
| 20260505192014 | 9 | 200 | 0.0 | 4.8 | 0.00 | 0.89 | 0.89 | 92 | 1009.2 |
| 20260505191805 | 9 | 212 | 0.0 | 4.8 | 0.00 | 0.89 | 0.89 | 92 | 1009.1 |
| 20260505191601 | 9 | 97 | 1.6 | 14.5 | 0.00 | 0.89 | 0.89 | 92 | 1009.1 |
| 20260505191359 | 9 | 224 | 1.6 | 14.5 | 0.00 | 0.89 | 0.89 | 92 | 1009.0 |
| 20260505191148 | 9 | 226 | 1.6 | 14.5 | 0.00 | 0.89 | 0.89 | 92 | 1009.1 |
| 20260505190630 | 9 | 229 | 3.2 | 14.5 | 0.00 | 0.89 | 0.89 | 92 | 1009.1 |
| 20260505190431 | 9 | 232 | 1.6 | 14.5 | 0.00 | 0.89 | 0.89 | 92 | 1009.0 |
| 20260505190224 | 9 | 169 | 1.6 | 8.0 | 0.00 | 0.89 | 0.89 | 92 | 1009.0 |
| 20260505190013 | 9 | 164 | 1.6 | 8.0 | 0.00 | 0.89 | 0.89 | 92 | 1009.2 |
| 20260505185815 | 9 | 257 | 1.6 | 8.0 | 0.00 | 0.89 | 0.89 | 92 | 1009.2 |
| 20260505185606 | 9 | 202 | 1.6 | 6.4 | 0.00 | 0.89 | 0.89 | 92 | 1009.0 |
| 20260505185403 | 9 | 206 | 1.6 | 8.0 | 0.00 | 0.89 | 0.89 | 92 | 1009.0 |